Regional Weather Roundup
Issued by NWS Grand Forks, ND

Home | Current Version | Previous Version | Graphics & Text | Print | Product List | Glossary On
Versions: 1 2 3 4 5 6 7 8 9 10 11 12 13 14 15 16 17 18 19 20 21 22 23 24 25 26 27 28 29 30 31 32 33 34 35 36 37 38 39 40 41 42 43 44 45 46 47 48 49 50
000
ASUS43 KFGF 311231
RWRFGF
PRAIRIE TO PINES  WEATHER ROUNDUP
NATIONAL WEATHER SERVICE EASTERN NORTH DAKOTA/GRAND FORKS ND
700 AM CDT MON AUG 31 2015

 **SATELLITE DATA USED TO AUGMENT SKY COVER AT AUTOMATED STATIONS**
 *****  WEATHER ACROSS EASTERN NORTH DAKOTA  *****

CITY           SKY/WX    TMP DP  RH WIND       PRES   REMARKS
GRAND FORKS    MOCLDY    64  61  90 S12       29.65R
6HR MIN TEMP:  64; 6HR MAX TEMP:  72;

GRAND FRKS AFB PTCLDY    64  62  93 S9        29.65R
GRAND FRKS NWS   N/A     63 N/A N/A S13         N/A
DEVILS LAKE    CLOUDY    64  57  77 W9        29.67R
6HR MIN TEMP:  64; 6HR MAX TEMP:  72;

FARGO          CLEAR     66  60  81 S13G24    29.67R
WAHPETON ARPT  SUNNY     64  55  72 SE12      29.72R
$$

 ***** WEATHER ACROSS CENTRAL AND WESTERN NORTH DAKOTA  *****

CITY           SKY/WX    TMP DP  RH WIND       PRES   REMARKS
BISMARCK       CLOUDY    69  57  65 NW8       29.72R
6HR MIN TEMP:  66; 6HR MAX TEMP:  72;

MINOT          CLOUDY    63  57  81 NW22G30   29.76R
6HR MIN TEMP:  62; 6HR MAX TEMP:  68; 6HR PCP:  0.04;

JAMESTOWN      MOCLDY    66  63  90 S7        29.68R
6HR MIN TEMP:  66; 6HR MAX TEMP:  70;

MINOT AFB      CLOUDY    64  64  99 NW21G32   29.74R
GARRISON         N/A     64  60  87 W7        29.76R
WILLISTON        N/A    N/A N/A N/A MISG      29.81R
DICKINSON      MOCLDY    59  54  83 NW14      29.83R
6HR MIN TEMP:  59; 6HR MAX TEMP:  70; 6HR PCP: TRACE;

HETTINGER      MOCLDY    60  55  83 NW15      29.84R
6HR MIN TEMP:  60; 6HR MAX TEMP:  68;

$$

 *****  OTHER AIRPORT OBSERVATIONS IN OUR AREA  *****

CITY           SKY/WX    TMP DP  RH WIND       PRES   REMARKS
WALHALLA       LGT RAIN  68  68 100 MISG      29.67R
GRAFTON AIRPOR CLOUDY    64  64 100 S9        29.66R FOG
VALLEY CITY AR FAIR      66  66 100 SW13      29.69R
CANDO          FAIR      64  57  77 N10       29.68F
CAVALIER APRT  CLOUDY    68  66  94 W13       29.70R
GWINNER        FAIR      73  59  60 S18       29.69R
SHEYENNE NWR     N/A     69  60  71 S9        29.95S
ROLLA          FAIR      63  57  82 NW9G16    29.73R
 ***** THE ABOVE OBSERVATIONS ARE NON NWS ARE NOT QUALITY
       CONTROLLED AND MAY MIS-REPORT RAIN FOR SNOW...
$$

  *****  WEATHER ACROSS NORTHERN MINNESOTA  *****

CITY           SKY/WX    TMP DP  RH WIND       PRES   REMARKS
FLAG ISLAND    PTCLDY    66  63  88 S8        29.67R
WARROAD        MOCLDY    64  61  88 S6        29.67F
ROSEAU         MOCLDY    64  59  82 S7        29.66S
HALLOCK        CLOUDY    66  63  88 S14       29.63S
THF RVR FALLS  CLEAR    N/A N/A N/A S8        29.68R
BAUDETTE       PTCLDY    63  59  87 S7        29.70R
6HR MIN TEMP:  63; 6HR MAX TEMP:  69;

WASKISH        CLEAR     64  61  88 S5        29.73R
CROOKSTON      PTCLDY    64  61  88 S13       29.68S
STEPHEN NDAWN    N/A     64  63  94 S9          N/A
GREENBUSH NDAW   N/A     66  61  82 S7          N/A
$$
  *****  WEATHER ACROSS CENTRAL AND WEST MINNESOTA  *****

CITY           SKY/WX    TMP DP  RH WIND       PRES   REMARKS
FOSSTON        CLEAR     64  55  72 S12       29.72R
BEMIDJI        CLEAR     65  58  80 S13G18    29.74F
PARK RAPIDS    PTCLDY    64  59  83 S13G24    29.78S
6HR MIN TEMP:  63; 6HR MAX TEMP:  68;

ELBOW LAKE     FAIR      65  60  85 S18G25    29.77S
6HR MIN TEMP:  63; 6HR MAX TEMP:  66;

WADENA         CLEAR     63  61  94 S8        29.79F
DETROIT LAKES  CLEAR     68  57  68 S12       29.75S
MOORHEAD       CLEAR     66  61  82 S15       29.70R
FERGUS FALLS   CLEAR     66  57  72 S15       29.73S
MORRIS MN      CLEAR     63  63 100 S13       29.79R FOG
STAPLES        CLEAR     63  61  94 S10G16    29.82S
$$
  *****  WEATHER ELSEWHERE ACROSS MINNESOTA  *****

CITY           SKY/WX    TMP DP  RH WIND       PRES   REMARKS
DULUTH         MOCLDY    64  62  93 S13       29.89R FOG
6HR MIN TEMP:  64; 6HR MAX TEMP:  67;

INTRNTL FALLS  CLEAR     64  61  90 VRB6      29.74S
6HR MIN TEMP:  64; 6HR MAX TEMP:  69;

ELY            CLEAR     63  57  82 S6        29.85S
CLOQUET        CLOUDY    64  61  88 S9        29.89S
WHEATON        CLEAR     63  57  82 SE16      29.74F
BRAINERD       PTCLDY    63  62  97 S9        29.85S FOG
6HR MIN TEMP:  63; 6HR MAX TEMP:  67;

HIBBING        FOG       58  58 100 SE5       29.86R VSB 1/2
6HR MIN TEMP:  58; 6HR MAX TEMP:  65;

ALEXANDRIA     CLEAR     65  62  90 S13       29.84S
6HR MIN TEMP:  64; 6HR MAX TEMP:  67;

SAINT CLOUD    PTCLDY    64  64 100 S7        29.89R FOG
6HR MIN TEMP:  64; 6HR MAX TEMP:  66;

MINNEAPOLIS    MOCLDY    67  65  93 SE5       29.94S FOG
6HR MIN TEMP:  63; 6HR MAX TEMP:  68;

$$

  *****  WEATHER ACROSS SOUTH DAKOTA  *****

CITY           SKY/WX    TMP DP  RH WIND       PRES   REMARKS
SIOUX FALLS    PTCLDY    65  63  93 S12       29.89S
6HR MIN TEMP:  64; 6HR MAX TEMP:  67;

BROOKINGS      CLEAR     64  61  88 S12G18    29.89R
WATERTOWN      CLEAR     64  61  90 S14       29.80F
6HR MIN TEMP:  64; 6HR MAX TEMP:  66;

HURON          CLEAR     66  63  90 S13G23    29.76S
6HR MIN TEMP:  66; 6HR MAX TEMP:  67;

SISSETON         N/A     73  59  61 SW28G37   29.68S
ABERDEEN       CLEAR     67  62  84 S16       29.69S
6HR MIN TEMP:  66; 6HR MAX TEMP:  69;

MITCHELL       CLEAR     65  64  97 S9        29.81F
PIERRE         MOCLDY    70  51  51 SE7       29.68R
6HR MIN TEMP:  69; 6HR MAX TEMP:  74;

MOBRIDGE       MOCLDY    65  60  84 NW5       29.67R
RAPID CITY     CLOUDY    69  53  56 N16G25    29.88R
6HR MIN TEMP:  67; 6HR MAX TEMP:  78;

$$

  *****  SOME WEATHER IN NEARBY STATES *****

CITY           SKY/WX    TMP DP  RH WIND       PRES   REMARKS
GLASGOW MT     CLEAR     51  45  79 W7        29.84R
6HR MIN TEMP:  51; 6HR MAX TEMP:  62; 6HR PCP:  0.04;

GREAT FALLS MT PTCLDY    52  32  46 SW15      29.91F
6HR MIN TEMP:  51; 6HR MAX TEMP:  55;

CHEYENNE WY    CLOUDY    67  46  47 W20       30.09F
6HR MIN TEMP:  63; 6HR MAX TEMP:  73; 6HR PCP: TRACE;

SCOTTSBLUFF NE MOCLDY    71  52  50 W12       29.96R
6HR MIN TEMP:  66; 6HR MAX TEMP:  80; 6HR PCP: TRACE;

OMAHA NE       PTCLDY    67  66  97 S7        29.96R FOG
6HR MIN TEMP:  65; 6HR MAX TEMP:  68;

DES MOINES IA  PTCLDY    68  65  90 SE7       29.98R
6HR MIN TEMP:  68; 6HR MAX TEMP:  70;

DAVENPORT IA   PTCLDY    63  61  93 SE5       30.05R FOG
6HR MIN TEMP:  61; 6HR MAX TEMP:  63;

CHICAGO IL     FOG       62  62 100 CALM      30.07R VSB 1/4
6HR MIN TEMP:  60; 6HR MAX TEMP:  64;

EAU CLAIRE WI  CLOUDY    63  61  93 S5        29.98R FOG
6HR MIN TEMP:  57; 6HR MAX TEMP:  63;

LA CROSSE WI   CLOUDY    66  64  93 S8        30.01R FOG
6HR MIN TEMP:  62; 6HR MAX TEMP:  66;

$$

  *****  SOME NATIONAL WEATHER *****

CITY           SKY/WX    TMP DP  RH WIND       PRES   REMARKS
LA GUARDIA NY  PTSUNNY   78  66  66 W8        30.03R
6HR MIN TEMP:  77; 6HR MAX TEMP:  80;

RALEIGH NC     RAIN      68  67  96 VRB3      30.13R FOG
6HR MIN TEMP:  67; 6HR MAX TEMP:  73; 6HR PCP:  1.44;

ATLANTA GA     CLOUDY    68  64  87 E7        30.12R
6HR MIN TEMP:  67; 6HR MAX TEMP:  68; 6HR PCP: TRACE;

NEW ORLEANS LA PTCLDY    76  70  82 CALM      30.03R
6HR MIN TEMP:  75; 6HR MAX TEMP:  78;

OKLAHOMA CITY  PTCLDY    67  63  87 S9        29.97R
6HR MIN TEMP:  66; 6HR MAX TEMP:  74;

ALBUQUERQUE NM MOCLDY    68  48  48 CALM      30.16R
6HR MIN TEMP:  65; 6HR MAX TEMP:  78;

SALT LAKE CITY MOCLDY    67  45  45 S10       30.02F
6HR MIN TEMP:  64; 6HR MAX TEMP:  74; 6HR PCP: TRACE;

LOS ANGELES CA MOCLDY    68  64  88 E3        29.86R
6HR MIN TEMP:  68; 6HR MAX TEMP:  72;




USA.gov is the U.S. government's official web portal to all federal, state and local government web resources and services.